"Pseudo-MPEC" for C14V922

Created 2019 Oct 10 18:07:09 UT using Find_Orb

Click here for an explanation of pseudo-MPECs

 
 Astrometry: 
     C14V922  C2019 10 08.33074 01 44 57.43 +20 28 23.0    ~A88q 20.7 GVNEOCPG96
     C14V922  C2019 10 08.33772 01 44 59.17 +20 27 46.1    ~A88q 20.4 GVNEOCPG96
     C14V922  C2019 10 08.34284 01 45 00.45 +20 27 19.0    ~A88q 20.6 GVNEOCPG96
     C14V922  C2019 10 08.34797 01 45 01.77 +20 26 52.8    ~A88q 19.8 GVNEOCPG96
     C14V922  C2019 10 08.39593401 45 13.47 +20 22 36.2    ~A8AM 20.4 GVNEOCPH01
     C14V922  C2019 10 08.40042301 45 14.60 +20 22 12.4    ~A8AM 20.5 GVNEOCPH01
     C14V922  C2019 10 08.40135 01 45 15.04 +20 22 10.0    ~A8A7 20.7 GVNEOCPI52
     C14V922  C2019 10 08.40343 01 45 15.57 +20 21 59.1    ~A8A7 20.7 GVNEOCPI52
     C14V922  C2019 10 08.40551 01 45 16.08 +20 21 47.7    ~A8A7 20.7 GVNEOCPI52
     C14V922  C2019 10 08.40759 01 45 16.61 +20 21 36.7    ~A8A7 20.7 GVNEOCPI52
     C14V922  C2019 10 08.41004301 45 17.03 +20 21 21.3    ~A8AM 20.4 GVNEOCPH01
     C14V922  C2019 10 08.41701601 45 18.79 +20 20 44.3    ~A8AM 20.2 GVNEOCPH01
     C14V922 KC2019 10 0952WFn0^$sAstrometry4xpJ\EsR6'KhJUUi!HB/7redacted;1vHH21
     C14V922 KC2019 10 091j31)7^=6TALclickn$jO)Yy^hB_6dH'uxPaicrLWCjheree?2t0H21
     C14V922 KC2019 10 09a#Ca;1)!H#(w!X^DAWforJvhmexplanationfS1)MwW]_[ZFvk)QH21
     C14V922  C2019 10 09.36843 01 49 33.73 +18 58 45.0    ~A99M 20.6 GVNEOCPI52
     C14V922  C2019 10 09.37051 01 49 34.23 +18 58 34.2    ~A99M 20.7 GVNEOCPI52
     C14V922  C2019 10 09.37259 01 49 34.71 +18 58 23.5    ~A99M 20.3 GVNEOCPI52
     C14V922  C2019 10 09.37595 01 49 35.51 +18 58 06.7    ~A99M 20.4 GVNEOCPI52
     C14V922  C2019 10 10.32766 01 53 34.72 +17 38 26.9    ~AA8M 20.6 GVNEOCPI52
     C14V922  C2019 10 10.32932 01 53 35.04 +17 38 17.9    ~AA8M 20.6 GVNEOCPI52
     C14V922  C2019 10 10.33099 01 53 35.42 +17 38 10.2    ~AA8M 20.7 GVNEOCPI52
     C14V922  C2019 10 10.33266 01 53 35.76 +17 38 01.7    ~AA8M 20.2 GVNEOCPI52

Station data:
(G96) Mt. Lemmon Survey  (N32.442754 W110.788720)  US/Arizona.  Observers T.
   A. Pruyne, B. M. Africano, E. J. Christensen, G. A. Farneth, D. C. Fuls,
   A. R. Gibbs, A. D. Grauer, H. Groeller, J. A. Johnson, R. A. Kowalski, S.
   M. Larson, G. J. Leonard, D. Rankin, R. L. Seaman, F. C. Shelly. 1.5-m
   reflector + 10K CCD.
(H01) Magdalena Ridge Observatory, Socorro  (N33.984833 W107.189333)  US/New
   Mexico.  Observers W. H. Ryan, E. V. Ryan. Measurer W. H. Ryan. 2.4-m
   f/8.9 reflector + CCD.
(H21) Astronomical Research Observatory, Westfield  (N39.483057 W87.968270)
   US/Illinois. 0.76-m f/3.0 astrograph + CCD.
(I52) Steward Observatory, Mt. Lemmon Station  (N32.442547 W110.788920)
   US/Arizona.  Observers T. A. Pruyne, B. M. Africano, E. J. Christensen, G.
   A. Farneth, D. C. Fuls, A. R. Gibbs, A. D. Grauer, H. Groeller, J. A.
   Johnson, R. A. Kowalski, S. M. Larson, G. J. Leonard, D. Rankin, R. L.
   Seaman, F. C. Shelly. 1.0-m reflector + CCD.

Orbital elements:  C14V922
   Perihelion 2019 Sep 12.503081 +/- 0.027 TT = 12:04:26 (JD 2458739.003081)
Epoch 2019 Oct 10.0 TT = JDT 2458766.5   Earth MOID: 0.1024   AutoNEOCP
M  10.07000964 +/- 0.10             (J2000 ecliptic)
n   0.36622319 +/- 0.00416          Peri.  147.67775 +/- 0.040
a   1.93481219 +/- 0.0147           Node   201.81559 +/- 0.010
e   0.4429894 +/- 0.00396           Incl.   10.01792 +/- 0.06
P   2.69/982.99d           H 24.2   G  0.15   U  9.1  
q 1.07771080 +/- 0.00052    Q 2.79191358 +/- 0.0284
From 23 observations 2019 Oct. 8-10; mean residual 0".22
Residuals in arcseconds: 
191008 G96  .30-  .09+    191008 I52  .10-  .24-    191009 I52  .04-  .21-    
191008 G96  .27-  .10-    191008 I52  .02+  .20-    191009 I52  .08-  .24-    
191008 G96  .19-  .25-    191008 H01  .12+  .08-    191009 I52  .20+  .20+    
191008 G96  .42+  .57+    191008 H01  .14+  .00     191010 I52  .29+  .34+    
191008 H01  .05-  .12-    191009 H21  .13+  .02+    191010 I52  .27-  .47-    
191008 H01  .01-  .09-    191009 H21  .45+  .33+    191010 I52  .00   .09+    
191008 I52  .08-  .01-    191009 H21  .12-  .17+    191010 I52  .30-  .16-    
191008 I52  .05+  .12+    191009 I52  .28-  .08-    

Ephemerides (geocentric):
Date (UTC) HH   RA              Dec         delta   r     elong  mag " sig PA
---- -- -- --  -------------   -----------  ------ ------ -----  --- ---- ---
2019 10 10 18  01 55 15.325   +17 04 11.62  .12733 1.1212 163.4 20.8 .073 130
2019 10 10 19  01 55 25.118   +17 00 48.81  .12745 1.1213 163.4 20.8 .070 125
2019 10 10 20  01 55 34.884   +16 57 26.30  .12757 1.1214 163.4 20.8 .067 120
2019 10 10 21  01 55 44.623   +16 54 04.09  .12768 1.1215 163.5 20.8 .066 113
2019 10 10 22  01 55 54.335   +16 50 42.19  .12780 1.1217 163.5 20.8 .065 107
2019 10 10 23  01 56 04.019   +16 47 20.58  .12792 1.1218 163.6 20.8 .065 100
2019 10 11 00  01 56 13.676   +16 43 59.27  .12803 1.1219 163.6 20.8 .065  93
2019 10 11 01  01 56 23.306   +16 40 38.27  .12815 1.1220 163.6 20.8 .067  86
2019 10 11 02  01 56 32.910   +16 37 17.57  .12827 1.1222 163.7 20.8 .069  79
2019 10 11 03  01 56 42.486   +16 33 57.17  .12839 1.1223 163.7 20.8 .073  73
2019 10 11 04  01 56 52.035   +16 30 37.08  .12851 1.1224 163.8 20.8 .077  68
2019 10 11 05  01 57 01.558   +16 27 17.29  .12863 1.1225 163.8 20.8 .082  63
2019 10 11 06  01 57 11.054   +16 23 57.80  .12874 1.1227 163.9 20.8 .088  58
2019 10 11 07  01 57 20.523   +16 20 38.62  .12886 1.1228 163.9 20.8 .094  54
2019 10 11 08  01 57 29.966   +16 17 19.74  .12898 1.1229 163.9 20.8 .100  50
2019 10 11 09  01 57 39.382   +16 14 01.17  .12910 1.1230 164.0 20.8 .107  47
2019 10 11 10  01 57 48.772   +16 10 42.91  .12922 1.1232 164.0 20.8 .115  44
2019 10 11 11  01 57 58.135   +16 07 24.95  .12934 1.1233 164.1 20.8 .123  41
2019 10 11 12  01 58 07.472   +16 04 07.30  .12946 1.1234 164.1 20.8 .131  39
2019 10 11 13  01 58 16.783   +16 00 49.96  .12959 1.1236 164.1 20.8 .140  37
2019 10 11 14  01 58 26.067   +15 57 32.92  .12971 1.1237 164.2 20.8 .148  35
2019 10 11 15  01 58 35.325   +15 54 16.20  .12983 1.1238 164.2 20.8 .157  33
2019 10 11 16  01 58 44.558   +15 50 59.78  .12995 1.1239 164.2 20.8 .167  32
2019 10 11 17  01 58 53.764   +15 47 43.67  .13007 1.1241 164.3 20.8 .176  30
2019 10 11 18  01 59 02.945   +15 44 27.87  .13019 1.1242 164.3 20.8 .186  29
2019 10 11 19  01 59 12.099   +15 41 12.38  .13032 1.1243 164.4 20.8 .196  28
2019 10 11 20  01 59 21.228   +15 37 57.20  .13044 1.1244 164.4 20.8 .206  27
2019 10 11 21  01 59 30.331   +15 34 42.34  .13056 1.1246 164.4 20.8 .216  26
2019 10 11 22  01 59 39.408   +15 31 27.78  .13069 1.1247 164.5 20.8 .227  25
2019 10 11 23  01 59 48.460   +15 28 13.53  .13081 1.1248 164.5 20.8 .237  24
2019 10 12 00  01 59 57.486   +15 24 59.60  .13093 1.1250 164.5 20.9 .248  23
2019 10 12 01  02 00 06.487   +15 21 45.98  .13106 1.1251 164.6 20.9 .259  23
2019 10 12 02  02 00 15.463   +15 18 32.67  .13118 1.1252 164.6 20.9 .270  22
2019 10 12 03  02 00 24.413   +15 15 19.67  .13131 1.1253 164.7 20.9 .282  21
2019 10 12 04  02 00 33.337   +15 12 06.98  .13143 1.1255 164.7 20.9 .293  21
2019 10 12 05  02 00 42.237   +15 08 54.61  .13156 1.1256 164.7 20.9 .305  20
2019 10 12 06  02 00 51.111   +15 05 42.55  .13168 1.1257 164.8 20.9 .316  20
2019 10 12 07  02 00 59.961   +15 02 30.81  .13181 1.1259 164.8 20.9 .328  19
2019 10 12 08  02 01 08.785   +14 59 19.38  .13193 1.1260 164.8 20.9 .340  19
2019 10 12 09  02 01 17.584   +14 56 08.27  .13206 1.1261 164.9 20.9 .352  18
2019 10 12 10  02 01 26.359   +14 52 57.47  .13219 1.1263 164.9 20.9 .365  18
2019 10 12 11  02 01 35.109   +14 49 46.98  .13231 1.1264 164.9 20.9 .377  17
2019 10 12 12  02 01 43.833   +14 46 36.81  .13244 1.1265 165.0 20.9 .390  17
2019 10 12 13  02 01 52.534   +14 43 26.95  .13257 1.1266 165.0 20.9 .402  17
2019 10 12 14  02 02 01.209   +14 40 17.42  .13270 1.1268 165.1 20.9 .415  16
2019 10 12 15  02 02 09.860   +14 37 08.19  .13282 1.1269 165.1 20.9 .428  16
2019 10 12 16  02 02 18.487   +14 33 59.29  .13295 1.1270 165.1 20.9 .441  16
2019 10 12 17  02 02 27.089   +14 30 50.69  .13308 1.1272 165.2 20.9 .454  15